QPF
0.05 0.06 0.08 0.07 0.05 0.04 0.04 0.03 0.02 0.03 0.03 0.03 0.03 0.04 0.05 0.05 0.06 0.06 0.05 0.05 0.06 0.06 0.05 0.04 0.03 0.02 0.02 0.02 0.02 0.03 0.04 0.05 0.06 0.05 0.05 0.05 0.06 0.06 0.05 0.04 0.03 0.03 0.03
0.04 0.04 0.04 0.04 0.04 0.03 0.04 0.03 0.02 0.02 0.02 0.03 0.04 0.05 0.06 0.07 0.06 0.05 0.04 0.04 0.06 0.07 0.06 0.05 0.04 0.02 0.02 0.03 0.03 0.03 0.03 0.04 0.04 0.05 0.05 0.05 0.05 0.05 0.05 0.05 0.04 0.03 0.03
0.03 0.02 0.02 0.02 0.02 0.02 0.03 0.02 0.02 0.02 0.03 0.03 0.03 0.04 0.06 0.06 0.07 0.06 0.04 0.04 0.05 0.06 0.05 0.04 0.04 0.03 0.03 0.03 0.03 0.04 0.04 0.03 0.04 0.05 0.06 0.07 0.07 0.05 0.05 0.06 0.05 0.05 0.04
0.03 0.02 0.02 0.02 0.02 0.02 0.02 0.03 0.02 0.03 0.03 0.03 0.03 0.04 0.05 0.05 0.04 0.04 0.04 0.04 0.05 0.05 0.05 0.05 0.04 0.03 0.03 0.04 0.04 0.04 0.04 0.04 0.05 0.06 0.06 0.07 0.07 0.05 0.05 0.07 0.08 0.07 0.04
0.03 0.02 0.01 0.02 0.03 0.03 0.03 0.03 0.02 0.02 0.02 0.02 0.02 0.03 0.04 0.03 0.03 0.04 0.05 0.04 0.05 0.06 0.06 0.05 0.04 0.03 0.03 0.03 0.03 0.03 0.04 0.05 0.05 0.05 0.05 0.04 0.04 0.05 0.05 0.07 0.08 0.06 0.04
0.02 0.02 0.02 0.04 0.05 0.04 0.03 0.04 0.04 0.04 0.04 0.03 0.03 0.04 0.04 0.03 0.04 0.04 0.06 0.05 0.04 0.05 0.06 0.06 0.04 0.03 0.03 0.02 0.02 0.02 0.02 0.03 0.05 0.06 0.05 0.05 0.04 0.05 0.05 0.07 0.06 0.05 0.05
0.03 0.02 0.02 0.04 0.06 0.05 0.04 0.04 0.05 0.05 0.05 0.04 0.03 0.03 0.04 0.03 0.04 0.04 0.06 0.05 0.04 0.04 0.04 0.03 0.03 0.03 0.03 0.03 0.03 0.03 0.02 0.02 0.02 0.04 0.06 0.05 0.05 0.05 0.06 0.05 0.05 0.05 0.05
0.03 0.03 0.03 0.04 0.05 0.04 0.04 0.03 0.04 0.04 0.04 0.03 0.01 0.01 0.02 0.03 0.03 0.03 0.03 0.03 0.03 0.03 0.03 0.03 0.03 0.03 0.02 0.03 0.03 0.04 0.03 0.02 0.03 0.03 0.04 0.04 0.05 0.05 0.04 0.04 0.04 0.04 0.03
0.04 0.04 0.04 0.04 0.04 0.03 0.03 0.02 0.02 0.02 0.03 0.02 0.02 0.02 0.02 0.04 0.03 0.02 0.02 0.02 0.02 0.02 0.02 0.02 0.02 0.02 0.02 0.01 0.02 0.02 0.02 0.02 0.02 0.01 0.01 0.02 0.02 0.02 0.03 0.03 0.03 0.03 0.04
0.06 0.05 0.05 0.05 0.04 0.03 0.02 0.02 0.02 0.02 0.02 0.02 0.02 0.03 0.04 0.04 0.03 0.02 0.01 0.01 0.02 0.02 0.03 0.03 0.03 0.02 0.02 0.02 0.02 0.03 0.03 0.02 0.01 0.01 0.02 0.02 0.02 0.03 0.03 0.03 0.04 0.05 0.04
0.05 0.04 0.04 0.05 0.04 0.02 0.02 0.01 0.02 0.02 0.02 0.02 0.03 0.02 0.02 0.02 0.01 0.01 0.00 0.01 0.01 0.02 0.02 0.02 0.02 0.02 0.01 0.01 0.02 0.02 0.02 0.02 0.02 0.02 0.02 0.02 0.03 0.04 0.04 0.05 0.04 0.04 0.05
0.03 0.03 0.02 0.02 0.02 0.01 0.01 0.01 0.01 0.01 0.01 0.02 0.02 0.02 0.01 0.01 0.01 0.00 0.00 0.00 0.00 0.01 0.01 0.01 0.01 0.01 0.01 0.01 0.01 0.01 0.01 0.01 0.02 0.03 0.04 0.04 0.04 0.04 0.04 0.05 0.04 0.04 0.04
0.02 0.02 0.02 0.01 0.01 0.01 0.01 0.01 0.01 0.01 0.01 0.01 0.01 0.02 0.01 0.01 0.01 0.01 0.01 0.01 0.01 0.01 0.01 0.01 0.01 0.01 0.01 0.02 0.02 0.02 0.02 0.03 0.04 0.04 0.05 0.05 0.05 0.04 0.03 0.03 0.03 0.04 0.03
0.02 0.01 0.01 0.01 0.01 0.01 0.01 0.01 0.01 0.01 0.01 0.01 0.02 0.02 0.01 0.01 0.01 0.01 0.02 0.01 0.01 0.01 0.01 0.01 0.01 0.01 0.00 0.01 0.01 0.02 0.03 0.04 0.04 0.03 0.04 0.05 0.04 0.04 0.04 0.04 0.04 0.05 0.04
0.02 0.01 0.01 0.01 0.01 0.00 0.01 0.01 0.01 0.01 0.01 0.01 0.01 0.01 0.01 0.01 0.01 0.01 0.01 0.01 0.02 0.01 0.01 0.01 0.02 0.01 0.01 0.02 0.02 0.03 0.03 0.04 0.04 0.04 0.04 0.04 0.04 0.04 0.04 0.04 0.04 0.05 0.05
0.03 0.02 0.02 0.01 0.01 0.01 0.01 0.01 0.01 0.01 0.00 0.00 0.01 0.01 0.01 0.01 0.01 0.01 0.02 0.02 0.01 0.01 0.01 0.01 0.02 0.02 0.02 0.02 0.03 0.03 0.03 0.04 0.04 0.04 0.04 0.04 0.04 0.04 0.03 0.03 0.04 0.05 0.07
0.03 0.03 0.02 0.01 0.02 0.02 0.01 0.01 0.01 0.01 0.01 0.00 0.01 0.01 0.01 0.01 0.02 0.02 0.02 0.01 0.01 0.01 0.01 0.01 0.02 0.02 0.02 0.02 0.03 0.03 0.04 0.04 0.04 0.04 0.04 0.05 0.05 0.05 0.05 0.05 0.06 0.06 0.06
0.02 0.02 0.01 0.01 0.02 0.02 0.01 0.01 0.01 0.01 0.01 0.01 0.01 0.02 0.02 0.02 0.03 0.03 0.03 0.02 0.01 0.01 0.02 0.02 0.03 0.02 0.02 0.02 0.03 0.04 0.04 0.03 0.03 0.04 0.04 0.05 0.07 0.07 0.07 0.07 0.08 0.07 0.06
0.01 0.00 0.01 0.01 0.02 0.01 0.01 0.01 0.01 0.01 0.01 0.01 0.01 0.01 0.01 0.01 0.02 0.03 0.02 0.03 0.03 0.04 0.05 0.05 0.04 0.03 0.03 0.03 0.03 0.03 0.04 0.04 0.04 0.04 0.04 0.05 0.06 0.06 0.08 0.08 0.09 0.07 0.05
0.00 0.01 0.01 0.01 0.02 0.01 0.01 0.01 0.02 0.01 0.01 0.01 0.01 0.01 0.01 0.01 0.02 0.03 0.04 0.05 0.05 0.05 0.05 0.05 0.04 0.04 0.03 0.03 0.03 0.02 0.03 0.03 0.03 0.03 0.03 0.03 0.04 0.05 0.06 0.07 0.08 0.07 0.07
0.00 0.01 0.01 0.01 0.01 0.01 0.01 0.01 0.02 0.01 0.01 0.01 0.01 0.01 0.01 0.01 0.01 0.02 0.04 0.04 0.04 0.04 0.04 0.04 0.04 0.04 0.03 0.02 0.02 0.02 0.02 0.03 0.02 0.02 0.03 0.03 0.04 0.04 0.04 0.05 0.06 0.05 0.05
0.01 0.01 0.00 0.00 0.01 0.01 0.01 0.00 0.01 0.01 0.01 0.01 0.01 0.01 0.01 0.01 0.01 0.02 0.03 0.04 0.03 0.03 0.03 0.03 0.03 0.03 0.02 0.02 0.02 0.01 0.01 0.02 0.03 0.03 0.03 0.03 0.04 0.04 0.03 0.03 0.03 0.04 0.04
0.01 0.00 0.00 0.00 0.00 0.00 0.00 0.00 0.00 0.00 0.00 0.01 0.00 0.01 0.01 0.01 0.02 0.02 0.03 0.03 0.02 0.02 0.03 0.02 0.02 0.02 0.02 0.02 0.01 0.01 0.01 0.02 0.02 0.02 0.02 0.03 0.03 0.02 0.02 0.02 0.02 0.05 0.05
0.00 0.00 0.00 0.00 0.00 0.01 0.00 0.00 0.00 0.00 0.00 0.00 0.01 0.01 0.01 0.02 0.02 0.02 0.02 0.02 0.02 0.02 0.02 0.02 0.02 0.01 0.01 0.01 0.01 0.01 0.01 0.01 0.01 0.02 0.02 0.02 0.02 0.01 0.02 0.03 0.02 0.03 0.05
0.00 0.00 0.00 0.00 0.00 0.00 0.00 0.00 0.00 0.00 0.00 0.01 0.01 0.01 0.01 0.01 0.01 0.01 0.02 0.02 0.01 0.01 0.01 0.01 0.01 0.01 0.01 0.00 0.01 0.01 0.01 0.01 0.01 0.01 0.01 0.01 0.01 0.01 0.02 0.03 0.04 0.04 0.04
0.00 0.00 0.00 0.00 0.00 0.00 0.00 0.00 0.00 0.00 0.00 0.01 0.00 0.00 0.01 0.01 0.01 0.01 0.01 0.00 0.00 0.00 0.00 0.00 0.01 0.01 0.01 0.01 0.01 0.01 0.01 0.00 0.00 0.01 0.01 0.00 0.01 0.02 0.02 0.03 0.03 0.04 0.05
MSLP
1015.32 1015.21 1015.05 1014.82 1014.53 1014.18 1013.78 1013.37 1012.96 1012.58 1012.24 1011.93 1011.66 1011.40 1011.15 1010.87 1010.56 1010.22 1009.84 1009.43 1009.02 1008.62 1008.26 1007.94 1007.68 1007.48 1007.32 1007.18 1007.06 1006.91 1006.74 1006.53 1006.29 1006.04 1005.79 1005.59 1005.47 1005.46 1005.58 1005.84 1006.22 1006.73 1007.31
1015.25 1015.11 1014.92 1014.68 1014.37 1014.01 1013.61 1013.19 1012.78 1012.41 1012.08 1011.81 1011.57 1011.37 1011.17 1010.95 1010.70 1010.41 1010.07 1009.69 1009.30 1008.90 1008.53 1008.20 1007.92 1007.70 1007.53 1007.38 1007.24 1007.09 1006.90 1006.68 1006.42 1006.14 1005.88 1005.65 1005.50 1005.46 1005.54 1005.76 1006.11 1006.57 1007.10
1015.16 1015.01 1014.82 1014.58 1014.28 1013.93 1013.54 1013.14 1012.75 1012.39 1012.08 1011.82 1011.61 1011.43 1011.26 1011.08 1010.86 1010.59 1010.28 1009.92 1009.54 1009.15 1008.79 1008.46 1008.18 1007.96 1007.79 1007.64 1007.50 1007.34 1007.15 1006.92 1006.64 1006.35 1006.06 1005.82 1005.65 1005.58 1005.63 1005.80 1006.10 1006.49 1006.94
1015.06 1014.92 1014.75 1014.53 1014.26 1013.94 1013.59 1013.22 1012.85 1012.51 1012.21 1011.96 1011.76 1011.58 1011.41 1011.23 1011.02 1010.76 1010.45 1010.10 1009.74 1009.36 1009.01 1008.69 1008.42 1008.21 1008.04 1007.90 1007.76 1007.61 1007.42 1007.18 1006.91 1006.62 1006.32 1006.06 1005.87 1005.78 1005.79 1005.92 1006.15 1006.46 1006.83
1014.96 1014.84 1014.70 1014.52 1014.29 1014.02 1013.70 1013.37 1013.03 1012.71 1012.42 1012.17 1011.96 1011.76 1011.58 1011.38 1011.16 1010.89 1010.58 1010.24 1009.88 1009.51 1009.17 1008.86 1008.61 1008.41 1008.25 1008.12 1007.99 1007.84 1007.66 1007.44 1007.17 1006.88 1006.58 1006.32 1006.12 1006.00 1005.97 1006.05 1006.22 1006.45 1006.72
1014.85 1014.76 1014.65 1014.52 1014.33 1014.10 1013.83 1013.53 1013.22 1012.91 1012.63 1012.37 1012.14 1011.93 1011.72 1011.50 1011.26 1010.98 1010.66 1010.32 1009.96 1009.60 1009.27 1008.98 1008.74 1008.54 1008.39 1008.26 1008.14 1008.00 1007.83 1007.61 1007.36 1007.08 1006.79 1006.53 1006.32 1006.18 1006.12 1006.14 1006.23 1006.38 1006.56
1014.76 1014.69 1014.62 1014.51 1014.36 1014.16 1013.92 1013.64 1013.35 1013.05 1012.76 1012.50 1012.25 1012.02 1011.80 1011.56 1011.30 1011.01 1010.69 1010.35 1010.00 1009.65 1009.33 1009.04 1008.80 1008.61 1008.46 1008.33 1008.20 1008.06 1007.89 1007.68 1007.44 1007.17 1006.89 1006.63 1006.41 1006.25 1006.15 1006.12 1006.15 1006.22 1006.30
1014.69 1014.64 1014.58 1014.49 1014.36 1014.17 1013.94 1013.67 1013.37 1013.08 1012.78 1012.50 1012.25 1012.01 1011.78 1011.54 1011.28 1011.00 1010.69 1010.36 1010.02 1009.68 1009.36 1009.08 1008.83 1008.62 1008.45 1008.30 1008.16 1008.01 1007.83 1007.62 1007.38 1007.11 1006.84 1006.58 1006.35 1006.16 1006.03 1005.96 1005.92 1005.92 1005.92
1014.66 1014.62 1014.56 1014.47 1014.32 1014.13 1013.88 1013.60 1013.29 1012.98 1012.68 1012.40 1012.14 1011.91 1011.68 1011.46 1011.22 1010.96 1010.68 1010.37 1010.04 1009.71 1009.39 1009.10 1008.83 1008.60 1008.39 1008.21 1008.04 1007.85 1007.65 1007.43 1007.18 1006.91 1006.64 1006.37 1006.13 1005.92 1005.76 1005.64 1005.55 1005.48 1005.43
1014.66 1014.62 1014.55 1014.44 1014.27 1014.04 1013.77 1013.46 1013.14 1012.82 1012.50 1012.22 1011.98 1011.76 1011.56 1011.36 1011.15 1010.93 1010.68 1010.40 1010.09 1009.76 1009.44 1009.12 1008.82 1008.54 1008.30 1008.06 1007.84 1007.62 1007.38 1007.13 1006.86 1006.58 1006.30 1006.02 1005.77 1005.54 1005.34 1005.19 1005.06 1004.95 1004.86
1014.69 1014.64 1014.55 1014.41 1014.20 1013.94 1013.64 1013.30 1012.95 1012.61 1012.30 1012.02 1011.79 1011.59 1011.42 1011.26 1011.10 1010.91 1010.69 1010.43 1010.14 1009.82 1009.48 1009.14 1008.80 1008.47 1008.16 1007.87 1007.60 1007.32 1007.04 1006.76 1006.47 1006.17 1005.87 1005.58 1005.31 1005.06 1004.85 1004.66 1004.51 1004.38 1004.27
1014.73 1014.66 1014.55 1014.37 1014.14 1013.84 1013.51 1013.14 1012.78 1012.43 1012.11 1011.84 1011.62 1011.45 1011.31 1011.18 1011.05 1010.90 1010.70 1010.46 1010.18 1009.85 1009.49 1009.11 1008.73 1008.35 1007.99 1007.64 1007.31 1006.99 1006.67 1006.36 1006.04 1005.72 1005.40 1005.10 1004.82 1004.56 1004.33 1004.13 1003.97 1003.83 1003.72
1014.73 1014.65 1014.51 1014.31 1014.05 1013.73 1013.38 1013.00 1012.62 1012.27 1011.96 1011.70 1011.50 1011.34 1011.22 1011.12 1011.00 1010.86 1010.68 1010.44 1010.15 1009.80 1009.42 1009.01 1008.59 1008.17 1007.76 1007.37 1007.00 1006.64 1006.29 1005.94 1005.61 1005.28 1004.95 1004.64 1004.35 1004.08 1003.84 1003.64 1003.48 1003.34 1003.23
1014.66 1014.56 1014.41 1014.20 1013.92 1013.60 1013.24 1012.86 1012.49 1012.14 1011.84 1011.59 1011.40 1011.25 1011.13 1011.02 1010.91 1010.76 1010.57 1010.32 1010.01 1009.64 1009.24 1008.81 1008.36 1007.91 1007.48 1007.06 1006.66 1006.29 1005.92 1005.57 1005.23 1004.89 1004.56 1004.24 1003.95 1003.68 1003.44 1003.23 1003.06 1002.93 1002.83
1014.49 1014.38 1014.21 1014.00 1013.72 1013.40 1013.05 1012.69 1012.34 1012.01 1011.72 1011.48 1011.29 1011.13 1011.00 1010.88 1010.74 1010.56 1010.34 1010.06 1009.73 1009.35 1008.92 1008.48 1008.02 1007.57 1007.14 1006.72 1006.34 1005.96 1005.61 1005.27 1004.93 1004.60 1004.27 1003.94 1003.64 1003.36 1003.12 1002.90 1002.72 1002.59 1002.48
1014.20 1014.08 1013.90 1013.69 1013.42 1013.12 1012.80 1012.46 1012.13 1011.83 1011.56 1011.32 1011.12 1010.96 1010.80 1010.64 1010.46 1010.25 1009.99 1009.67 1009.32 1008.91 1008.48 1008.04 1007.60 1007.18 1006.77 1006.40 1006.04 1005.71 1005.39 1005.06 1004.74 1004.42 1004.08 1003.76 1003.44 1003.14 1002.87 1002.63 1002.43 1002.27 1002.13
1013.82 1013.68 1013.50 1013.29 1013.04 1012.76 1012.46 1012.16 1011.86 1011.58 1011.32 1011.09 1010.89 1010.70 1010.51 1010.31 1010.09 1009.83 1009.53 1009.18 1008.80 1008.40 1007.98 1007.56 1007.16 1006.78 1006.44 1006.12 1005.83 1005.55 1005.27 1004.98 1004.68 1004.36 1004.02 1003.68 1003.33 1002.99 1002.68 1002.39 1002.14 1001.92 1001.74
1013.36 1013.21 1013.03 1012.82 1012.58 1012.33 1012.06 1011.78 1011.51 1011.26 1011.01 1010.79 1010.58 1010.37 1010.15 1009.92 1009.66 1009.36 1009.02 1008.66 1008.27 1007.87 1007.48 1007.11 1006.76 1006.46 1006.19 1005.95 1005.73 1005.51 1005.28 1005.03 1004.74 1004.42 1004.07 1003.68 1003.28 1002.89 1002.50 1002.14 1001.82 1001.52 1001.26
1012.89 1012.72 1012.54 1012.33 1012.10 1011.86 1011.61 1011.36 1011.11 1010.87 1010.64 1010.42 1010.21 1009.99 1009.76 1009.50 1009.21 1008.89 1008.54 1008.17 1007.79 1007.42 1007.07 1006.76 1006.48 1006.26 1006.07 1005.91 1005.76 1005.61 1005.42 1005.20 1004.92 1004.59 1004.20 1003.76 1003.30 1002.82 1002.34 1001.89 1001.47 1001.08 1000.72
1012.44 1012.26 1012.07 1011.86 1011.64 1011.40 1011.16 1010.92 1010.68 1010.46 1010.24 1010.03 1009.82 1009.60 1009.36 1009.10 1008.81 1008.49 1008.14 1007.79 1007.44 1007.11 1006.81 1006.56 1006.36 1006.21 1006.10 1006.02 1005.94 1005.83 1005.68 1005.48 1005.20 1004.83 1004.39 1003.90 1003.35 1002.78 1002.20 1001.65 1001.11 1000.62 1000.16
1012.03 1011.86 1011.66 1011.45 1011.22 1010.98 1010.73 1010.49 1010.26 1010.04 1009.84 1009.64 1009.44 1009.24 1009.01 1008.77 1008.49 1008.20 1007.88 1007.56 1007.25 1006.97 1006.73 1006.54 1006.40 1006.32 1006.28 1006.25 1006.22 1006.15 1006.02 1005.82 1005.52 1005.13 1004.64 1004.07 1003.44 1002.79 1002.12 1001.45 1000.82 1000.22 999.67
1011.69 1011.52 1011.32 1011.10 1010.86 1010.61 1010.35 1010.10 1009.87 1009.66 1009.46 1009.27 1009.10 1008.92 1008.73 1008.52 1008.28 1008.03 1007.76 1007.49 1007.23 1007.00 1006.82 1006.68 1006.60 1006.56 1006.57 1006.58 1006.57 1006.52 1006.40 1006.18 1005.86 1005.44 1004.90 1004.28 1003.59 1002.86 1002.11 1001.36 1000.65 999.98 999.34
1011.40 1011.24 1011.04 1010.81 1010.56 1010.29 1010.02 1009.76 1009.52 1009.30 1009.12 1008.95 1008.80 1008.66 1008.52 1008.36 1008.18 1007.98 1007.78 1007.56 1007.36 1007.18 1007.04 1006.94 1006.90 1006.89 1006.91 1006.93 1006.93 1006.88 1006.75 1006.52 1006.19 1005.74 1005.18 1004.52 1003.79 1003.02 1002.22 1001.43 1000.67 999.94 999.26
1011.13 1010.98 1010.79 1010.56 1010.29 1010.01 1009.72 1009.46 1009.21 1009.00 1008.83 1008.69 1008.58 1008.48 1008.39 1008.29 1008.17 1008.04 1007.89 1007.73 1007.58 1007.45 1007.34 1007.27 1007.24 1007.24 1007.26 1007.27 1007.26 1007.20 1007.05 1006.82 1006.47 1006.01 1005.44 1004.78 1004.04 1003.26 1002.46 1001.66 1000.88 1000.14 999.45
1010.85 1010.72 1010.53 1010.30 1010.03 1009.75 1009.46 1009.20 1008.96 1008.76 1008.61 1008.50 1008.42 1008.38 1008.34 1008.30 1008.24 1008.17 1008.08 1007.98 1007.87 1007.76 1007.68 1007.62 1007.58 1007.58 1007.57 1007.56 1007.53 1007.44 1007.28 1007.03 1006.68 1006.22 1005.67 1005.03 1004.32 1003.57 1002.80 1002.03 1001.28 1000.56 999.87
1010.53 1010.41 1010.24 1010.03 1009.78 1009.51 1009.24 1008.98 1008.77 1008.60 1008.48 1008.40 1008.38 1008.37 1008.38 1008.40 1008.40 1008.38 1008.33 1008.27 1008.19 1008.11 1008.03 1007.97 1007.92 1007.88 1007.85 1007.80 1007.74 1007.62 1007.44 1007.18 1006.83 1006.39 1005.86 1005.26 1004.60 1003.90 1003.19 1002.47 1001.77 1001.09 1000.44
Thickness
5656 5651 5646 5643 5639 5635 5632 5629 5627 5624 5622 5620 5617 5615 5612 5610 5608 5607 5607 5606 5605 5604 5604 5603 5602 5601 5601 5602 5602 5601 5601 5600 5599 5601 5603 5604 5602 5602 5604 5605 5607 5609 5612
5651 5647 5642 5638 5634 5631 5628 5625 5623 5619 5617 5615 5613 5610 5608 5606 5604 5602 5601 5601 5600 5599 5599 5598 5597 5597 5595 5595 5595 5594 5594 5594 5593 5593 5595 5597 5597 5597 5598 5598 5601 5604 5606
5648 5643 5637 5633 5630 5627 5624 5621 5618 5615 5613 5611 5608 5606 5603 5601 5599 5598 5597 5596 5595 5595 5594 5593 5592 5591 5590 5590 5588 5589 5589 5590 5589 5588 5590 5591 5592 5592 5592 5593 5596 5597 5600
5643 5638 5634 5629 5626 5623 5620 5617 5614 5611 5609 5607 5605 5602 5600 5598 5596 5595 5594 5592 5591 5591 5590 5589 5588 5586 5585 5585 5584 5583 5584 5584 5584 5584 5585 5586 5587 5587 5586 5588 5590 5592 5595
5639 5634 5631 5626 5623 5620 5616 5613 5610 5608 5606 5604 5602 5600 5597 5594 5592 5589 5588 5588 5587 5586 5586 5585 5583 5581 5579 5578 5579 5579 5579 5579 5580 5580 5580 5581 5582 5581 5581 5583 5585 5587 5590
5635 5632 5628 5624 5620 5617 5614 5611 5608 5605 5602 5600 5598 5596 5593 5591 5585 5581 5580 5581 5582 5582 5581 5580 5579 5577 5575 5572 5571 5570 5570 5572 5574 5574 5575 5575 5576 5577 5578 5579 5580 5581 5583
5632 5629 5625 5622 5618 5615 5612 5609 5605 5602 5599 5596 5594 5592 5590 5585 5580 5577 5575 5575 5577 5577 5576 5575 5576 5575 5572 5572 5569 5566 5566 5564 5563 5566 5569 5570 5571 5572 5572 5573 5574 5575 5577
5630 5627 5624 5620 5616 5613 5609 5606 5603 5600 5596 5594 5592 5590 5587 5582 5576 5574 5572 5573 5574 5573 5572 5571 5570 5569 5568 5565 5566 5567 5566 5565 5563 5562 5563 5564 5566 5566 5566 5566 5567 5569 5572
5629 5625 5622 5618 5614 5610 5607 5604 5601 5598 5595 5593 5590 5589 5586 5581 5575 5572 5568 5572 5572 5571 5570 5569 5567 5565 5560 5558 5560 5562 5562 5562 5561 5559 5558 5559 5558 5558 5558 5561 5563 5565 5569
5627 5624 5621 5617 5612 5609 5606 5602 5600 5596 5594 5592 5590 5587 5584 5581 5574 5570 5566 5571 5571 5570 5569 5567 5563 5560 5556 5554 5556 5557 5558 5559 5559 5560 5558 5557 5557 5558 5556 5556 5560 5562 5565
5626 5623 5618 5614 5611 5608 5604 5601 5599 5596 5593 5590 5588 5586 5583 5579 5574 5569 5565 5567 5568 5568 5568 5567 5564 5557 5553 5551 5550 5552 5553 5552 5554 5555 5557 5558 5559 5559 5559 5558 5557 5558 5561
5624 5620 5617 5613 5610 5608 5603 5600 5598 5594 5592 5590 5587 5585 5584 5580 5574 5570 5565 5562 5560 5563 5564 5564 5561 5554 5551 5549 5550 5550 5548 5547 5552 5554 5555 5556 5557 5558 5558 5557 5556 5556 5556
5621 5618 5615 5612 5609 5606 5602 5600 5597 5594 5593 5591 5588 5586 5584 5581 5576 5569 5565 5561 5559 5559 5561 5558 5555 5552 5550 5552 5551 5549 5547 5550 5552 5553 5553 5553 5554 5555 5555 5555 5555 5554 5553
5620 5617 5614 5611 5608 5605 5602 5600 5597 5594 5592 5590 5587 5584 5582 5579 5576 5572 5569 5565 5561 5560 5560 5558 5555 5554 5552 5552 5553 5553 5552 5551 5550 5550 5551 5552 5552 5552 5554 5554 5554 5553 5553
5619 5616 5614 5612 5609 5604 5601 5597 5594 5591 5587 5583 5583 5581 5578 5575 5570 5561 5560 5562 5560 5558 5554 5557 5560 5560 5559 5558 5557 5554 5552 5551 5549 5548 5548 5549 5550 5551 5552 5552 5551 5552 5552
5619 5616 5615 5613 5609 5606 5602 5599 5593 5589 5584 5580 5575 5572 5572 5568 5563 5560 5557 5554 5552 5549 5551 5558 5559 5558 5557 5556 5553 5552 5550 5548 5547 5546 5546 5546 5547 5547 5549 5549 5549 5549 5548
5619 5617 5615 5613 5610 5607 5604 5600 5596 5592 5586 5582 5577 5572 5568 5564 5561 5559 5556 5555 5553 5548 5554 5558 5557 5555 5553 5552 5550 5548 5547 5546 5544 5543 5543 5542 5542 5543 5542 5543 5544 5545 5545
5620 5617 5614 5612 5610 5607 5604 5601 5599 5595 5591 5588 5582 5575 5570 5566 5562 5559 5557 5555 5561 5557 5558 5556 5554 5552 5550 5547 5545 5544 5543 5542 5541 5540 5539 5537 5537 5536 5537 5537 5538 5538 5539
5622 5619 5615 5612 5610 5607 5605 5602 5599 5595 5592 5589 5586 5581 5573 5569 5565 5561 5557 5560 5561 5559 5556 5553 5550 5547 5545 5543 5541 5540 5539 5538 5536 5535 5534 5533 5532 5531 5531 5532 5533 5532 5532
5622 5615 5612 5611 5609 5607 5605 5602 5598 5594 5591 5588 5584 5581 5577 5573 5571 5567 5563 5561 5559 5555 5552 5548 5545 5542 5540 5539 5537 5535 5534 5532 5530 5529 5528 5527 5526 5526 5525 5526 5526 5527 5529
5625 5620 5610 5611 5610 5607 5603 5600 5597 5594 5590 5587 5584 5579 5568 5570 5569 5566 5563 5559 5555 5552 5548 5544 5542 5539 5536 5533 5532 5530 5527 5526 5523 5520 5519 5519 5519 5520 5520 5520 5521 5521 5523
5626 5623 5618 5614 5610 5606 5602 5599 5596 5592 5589 5585 5583 5579 5569 5568 5567 5564 5560 5555 5552 5547 5544 5541 5538 5535 5531 5528 5525 5522 5520 5517 5514 5512 5510 5511 5512 5513 5513 5513 5514 5516 5517
5625 5622 5618 5614 5610 5603 5600 5598 5595 5591 5587 5583 5580 5575 5572 5568 5564 5560 5555 5551 5546 5543 5539 5536 5533 5530 5526 5521 5518 5515 5512 5508 5504 5503 5502 5503 5505 5506 5507 5507 5508 5510 5511
5626 5621 5617 5613 5608 5604 5601 5597 5594 5589 5585 5581 5576 5572 5568 5563 5559 5554 5550 5545 5541 5538 5534 5531 5527 5523 5518 5515 5511 5507 5501 5495 5492 5494 5494 5495 5497 5499 5500 5501 5501 5503 5504
5625 5620 5616 5611 5607 5603 5599 5595 5591 5587 5583 5579 5573 5569 5565 5561 5555 5550 5545 5541 5537 5533 5529 5525 5521 5517 5512 5508 5503 5497 5489 5486 5484 5483 5485 5489 5491 5492 5492 5493 5494 5495 5497
5625 5620 5615 5611 5607 5603 5598 5594 5591 5587 5582 5577 5572 5567 5562 5557 5551 5545 5541 5536 5532 5528 5523 5519 5514 5510 5505 5500 5493 5487 5483 5480 5478 5476 5477 5483 5486 5487 5486 5487 5487 5489 5490